This is the latest recevied weather packets stored in our database for station/object N3LF. If no packets are shown the sender has not sent any weather packets the latest 1 day(s).
| Time | Temp. | Humidity | Pressure | Rain* | Wind** | Luminosity | Snow |
|---|---|---|---|---|---|---|---|
| 1778043034 | 20.56° C | 85% | 1008.9 hPa | 0 mm | 0.45 m/s, 207° | 0 W/m² | - |
| 1778042732 | 20° C | 85% | 1008.8 hPa | 0 mm | 0.45 m/s, 201° | 0 W/m² | - |
| 1778042429 | 20° C | 84% | 1008.8 hPa | 0 mm | 0.89 m/s, 172° | 0 W/m² | - |
| 1778042126 | 20° C | 85% | 1009 hPa | 0 mm | 1.34 m/s, 224° | 0 W/m² | - |
| 1778041824 | 20° C | 86% | 1009.1 hPa | 0 mm | 0.89 m/s, 220° | 0 W/m² | - |
| 1778041523 | 20° C | 86% | 1008.9 hPa | 0 mm | 0.45 m/s, 200° | 0 W/m² | - |
| 1778041221 | 19.44° C | 86% | 1009 hPa | 0 mm | 0.89 m/s, 206° | 0 W/m² | - |
| 1778040919 | 20° C | 86% | 1009.1 hPa | 0 mm | 1.34 m/s, 186° | 0 W/m² | - |
| 1778040616 | 19.44° C | 87% | 1009.3 hPa | 0 mm | 1.34 m/s, 193° | 0 W/m² | - |
| 1778040314 | 18.89° C | 88% | 1009.2 hPa | 0 mm | 0.45 m/s, 200° | 0 W/m² | - |
| 1778040009 | 18.89° C | 89% | 1009.2 hPa | 0 mm | 0 m/s | 0 W/m² | - |
| 1778039706 | 18.89° C | 90% | 1009.1 hPa | 0 mm | 0 m/s | 0 W/m² | - |
| 1778039403 | 18.89° C | 89% | 1009.3 hPa | 0 mm | 0.89 m/s, 204° | 0 W/m² | - |
| 1778039100 | 18.89° C | 90% | 1009.5 hPa | 0 mm | 0 m/s | 0 W/m² | - |
| 1778038797 | 18.89° C | 90% | 1009.5 hPa | 0 mm | 0.89 m/s, 217° | 0 W/m² | - |
| 1778038495 | 18.33° C | 90% | 1009.3 hPa | 0 mm | 0.89 m/s, 207° | 0 W/m² | - |
| 1778038191 | 18.33° C | 91% | 1009.5 hPa | 0 mm | 0 m/s | 0 W/m² | - |
| 1778037889 | 18.33° C | 91% | 1009.5 hPa | 0 mm | 0 m/s | 0 W/m² | - |
| 1778037585 | 18.33° C | 91% | 1009.5 hPa | 0 mm | 1.34 m/s, 223° | 0 W/m² | - |
| 1778037282 | 18.33° C | 91% | 1009.6 hPa | 0 mm | 0 m/s | 0 W/m² | - |
| 1778036980 | 18.33° C | 92% | 1009.6 hPa | 0 mm | 0.89 m/s, 218° | 0 W/m² | - |
| 1778036678 | 18.33° C | 92% | 1009.6 hPa | 0 mm | 0.45 m/s, 206° | 0 W/m² | - |
| 1778036374 | 17.78° C | 94% | 1009.6 hPa | 0 mm | 0.89 m/s, 200° | 0 W/m² | - |
| 1778036071 | 17.78° C | 95% | 1009.5 hPa | 0 mm | 0 m/s | 0 W/m² | - |
| 1778035768 | 17.22° C | 96% | 1009.9 hPa | 0 mm | 0.89 m/s, 192° | 0 W/m² | - |
* Rain latest hour (hover to see other rain measurements)
** Current wind speed in m/s (hover to see current wind gust speed)